Tracking 19254 objects as of 19-Oct-2018
HD Live streaming from Space Station
objects crossing your sky now

HORIZONS 3E

Track HORIZONS 3E now!


NORAD ID: 43633
Int'l Code: 2018-074B
Perigee: 35,788.9 km
Apogee: 35,798.0 km
Inclination: 0.1 °
Period: 1,436.1 minutes
Semi major axis: 42164 km
RCS: Unknown
Launch date: September 25, 2018
Source: Japan (JPN)
Launch site: FRENCH GUIANA (FRGUI)
aabbcc
Your satellite tracking list
Your tracking list is empty




NASA's NSSDC Master Catalog

Two Line Element Set (TLE):
1 43633U 18074B   18289.54631875 -.00000084  00000-0  00000+0 0  9998
2 43633   0.0723 271.3643 0001081 273.6848 200.8630  1.00272801   287
Source of the keplerian elements: AFSPC